Kuchera_Ratio
0.0 0.0 0.0 0.0 0.0 0.0 0.0 0.0 0.0 0.0 0.0 0.0 0.0 0.0 0.0 0.0 0.0 0.0 0.0 0.0 0.0 0.0 0.0 0.0 0.0 0.0 0.0
0.0 0.0 0.0 0.0 0.0 0.0 0.0 0.0 0.0 0.0 0.0 0.0 0.0 0.0 0.0 0.0 0.0 0.0 0.0 0.0 0.0 0.0 0.0 0.0 0.0 0.0 0.0
0.0 0.0 0.0 0.0 0.0 0.0 0.0 0.0 0.0 0.0 0.0 0.0 0.0 0.0 0.0 0.0 0.0 0.0 0.0 0.0 0.0 0.0 0.0 0.0 0.0 0.0 0.0
0.0 0.0 0.0 0.0 0.0 0.0 0.0 0.0 0.0 0.0 0.0 0.0 0.0 0.0 0.0 0.0 0.0 0.0 0.0 0.0 0.0 0.0 0.0 0.0 0.0 0.0 0.0
0.0 0.0 0.0 0.0 0.0 0.0 0.0 0.0 0.0 0.0 0.0 0.0 0.0 0.0 0.0 0.0 0.0 0.0 0.0 0.0 0.0 0.0 0.0 0.0 0.0 0.0 0.0
0.0 0.0 0.0 0.0 0.0 0.0 0.0 0.0 0.0 0.0 0.0 0.0 0.0 0.0 0.0 0.0 0.0 0.0 0.0 0.0 0.0 0.0 0.0 0.0 0.0 0.0 0.0
0.0 0.0 0.0 0.0 0.0 0.0 0.0 0.0 0.0 0.0 0.0 0.0 0.0 0.0 0.0 0.0 0.0 0.0 0.0 0.0 0.0 0.0 0.0 0.0 0.0 0.0 0.0
0.0 0.0 0.0 0.0 0.0 0.0 0.0 0.0 0.0 0.0 0.0 2.5 0.0 0.0 0.0 0.0 0.0 0.0 0.0 0.0 0.0 0.0 0.0 0.0 0.0 0.0 0.0
0.0 0.0 0.0 0.0 0.0 0.0 0.5 3.2 3.1 1.7 1.0 1.7 2.5 1.8 0.0 0.0 0.0 0.0 0.3 0.5 0.4 0.0 0.0 0.0 0.0 0.0 0.0
0.0 0.0 0.0 0.0 0.0 0.0 0.0 2.7 5.2 7.6 2.1 4.9 6.1 5.9 7.0 2.6 0.4 0.0 0.0 0.0 0.6 0.7 0.7 0.8 0.6 1.0 1.5
0.0 0.0 0.0 0.0 0.0 0.0 0.0 0.4 4.6 5.8 2.3 4.3 8.4 8.6 9.4 8.4 4.6 2.3 1.1 1.1 1.4 1.4 1.5 1.8 1.1 1.3 4.1
2.6 3.2 3.2 3.8 3.0 2.4 2.2 2.4 0.7 2.2 2.0 4.0 8.9 8.9 10.2 10.9 10.8 4.7 3.8 3.3 3.5 5.7 5.3 3.1 2.4 1.7 1.5
5.2 6.0 5.3 4.6 5.3 6.4 6.4 5.8 5.7 4.1 3.6 6.5 7.6 8.9 9.8 12.0 12.1 10.2 10.9 7.0 6.0 8.4 6.9 6.6 6.7 5.4 8.1
6.3 7.4 7.8 8.0 8.6 7.7 9.4 9.1 9.7 10.0 7.6 8.3 8.6 9.7 11.8 11.1 11.7 12.6 9.8 12.8 8.3 8.1 8.0 7.5 5.8 4.5 4.1
7.8 8.8 9.2 8.9 9.3 8.3 9.1 10.6 10.9 11.3 11.9 10.2 9.1 9.8 10.4 12.5 13.8 12.1 11.8 11.1 8.6 8.8 9.3 10.5 7.3 5.4 4.3
6.9 7.8 9.1 9.5 10.8 10.2 10.1 10.9 11.6 12.2 12.3 11.3 12.1 12.8 12.5 10.8 10.2 12.8 11.6 11.4 8.7 8.8 9.5 12.4 11.6 5.9 3.0
7.9 8.1 8.4 9.4 10.3 11.4 11.6 11.4 12.3 12.1 12.4 12.2 13.6 14.7 15.7 15.9 9.4 7.5 12.9 11.6 11.1 11.9 9.9 10.2 12.2 9.2 5.3